Jefferson, NC

10:15 PM EST on December 14, 2019 (GMT -0500)
Ashe County

Weather History for KGEV - November, 2019

Change the Weather History Date:

Friday, November 22, 2019

  Actual Average Record
Temperature  
Mean Temperature 51 °F -  
Max Temperature 56 °F 50 °F 68 °F (2003)
Min Temperature 45 °F 29 °F 10 °F (1984)
Degree Days  
Heating Degree Days 14    
Growing Degree Days 1 (Base 50)    
Moisture  
Dew Point 41 °F    
Average Humidity 75    
Maximum Humidity 98    
Minimum Humidity 35    
Precipitation  
Precipitation 0.01 in - - ()
Sea Level Pressure  
Sea Level Pressure 30.03 in    
Wind  
Wind Speed 9 mph ()    
Max Wind Speed 28 mph    
Max Gust Speed 39 mph    
Visibility 9.5 miles    
Events Rain    
Averages and records for this station are not official NWS values.
T = Trace of Precipitation, MM = Missing Value Source: Averaged Metar Reports

Daily Weather History Graph

Daily Weather History Graph

Search for Another Location

Airport or City:

Astronomy

Nov. 22, 2019 Rise Set
Actual Time 7:09 AM EST 5:13 PM EST
Civil Twilight 6:42 AM EST 5:41 PM EST
Nautical Twilight 6:10 AM EST 6:12 PM EST
Astronomical Twilight 5:39 AM EST 6:43 PM EST
Moon 2:24 AM EST (11/22) 3:04 PM EST (11/22)
Length of Visible Light 10h 59m
Length of Day
10h 03m
Waning Crescent, 20% of the Moon is Illuminated
Nov 22
Waning Crescent
Nov 26
New
Dec 4
First Quarter
Dec 12
Full
Dec 18
Last Quarter

Hourly Weather History & Observations

Time (EST) Temp. Dew Point Humidity Pressure Visibility Wind Dir Wind Speed Gust Speed Precip Events Conditions
12:35 AM 48.0 °F 33.3 °F 57% 30.09 in 10.0 mi SW 3.5 mph - N/A   Clear
12:55 AM 48.4 °F 33.1 °F 56% 30.08 in 10.0 mi Calm Calm - N/A   Mostly Cloudy
1:15 AM 50.5 °F 36.1 °F 58% 30.07 in 10.0 mi West 15.0 mph 26.5 mph N/A   Overcast
1:35 AM 51.1 °F 36.3 °F 57% 30.06 in 10.0 mi West 11.5 mph 16.1 mph N/A   Overcast
1:55 AM 52.3 °F 32.9 °F 48% 30.06 in 10.0 mi WSW 10.4 mph 20.7 mph N/A   Scattered Clouds
2:15 AM 51.8 °F 37.2 °F 58% 30.06 in 10.0 mi West 20.7 mph 26.5 mph N/A   Mostly Cloudy
2:35 AM 51.1 °F 40.3 °F 67% 30.04 in 10.0 mi WSW 19.6 mph 28.8 mph N/A   Overcast
2:55 AM 52.3 °F 37.6 °F 57% 30.04 in 10.0 mi West 16.1 mph 28.8 mph N/A   Overcast
3:35 AM 54.9 °F 35.8 °F 49% 30.03 in 10.0 mi West 12.7 mph 28.8 mph N/A   Overcast
3:55 AM 55.4 °F 32.5 °F 42% 30.02 in 10.0 mi West 13.8 mph 23.0 mph N/A   Mostly Cloudy
4:15 AM 54.1 °F 32.0 °F 43% 30.02 in 10.0 mi SSW 4.6 mph - N/A   Clear
4:35 AM 54.3 °F 28.2 °F 37% 30.02 in 10.0 mi WSW 6.9 mph - N/A   Clear
4:55 AM 54.3 °F 27.7 °F 36% 30.02 in 10.0 mi WSW 6.9 mph - N/A   Clear
5:15 AM 54.1 °F 27.1 °F 35% 30.02 in 10.0 mi SSW 3.5 mph - N/A   Clear
5:35 AM 54.0 °F 26.6 °F 35% 30.03 in 10.0 mi SW 5.8 mph - N/A   Mostly Cloudy
5:55 AM 54.0 °F 26.6 °F 35% 30.03 in 10.0 mi West 10.4 mph - N/A   Overcast
6:15 AM 52.7 °F 28.6 °F 40% 30.03 in 10.0 mi West 12.7 mph 20.7 mph N/A   Overcast
7:15 AM 50.9 °F 31.6 °F 48% 30.05 in 10.0 mi West 9.2 mph 16.1 mph N/A   Overcast
7:55 AM 49.3 °F 36.1 °F 61% 30.05 in 10.0 mi West 11.5 mph 31.1 mph N/A Rain Rain
8:15 AM 50.2 °F 37.4 °F 62% 30.05 in 10.0 mi WSW 11.5 mph 25.3 mph N/A   Overcast
8:35 AM 50.9 °F 36.7 °F 58% 30.04 in 10.0 mi West 17.3 mph 28.8 mph N/A   Mostly Cloudy
8:55 AM 50.7 °F 37.8 °F 61% 30.03 in 10.0 mi West 21.9 mph 32.2 mph N/A   Overcast
9:55 AM 48.6 °F 43.7 °F 83% 30.03 in 10.0 mi West 27.6 mph 34.5 mph 0.01 in   Drizzle
10:15 AM 49.3 °F 42.8 °F 78% 30.04 in 10.0 mi West 24.2 mph 39.1 mph N/A   Overcast
10:35 AM 49.6 °F 42.4 °F 76% 30.04 in 10.0 mi West 18.4 mph 32.2 mph N/A   Overcast
10:55 AM 50.2 °F 44.2 °F 80% 30.06 in 10.0 mi West 19.6 mph 32.2 mph N/A   Overcast
11:15 AM 50.7 °F 45.0 °F 81% 30.04 in 10.0 mi West 16.1 mph 21.9 mph N/A   Overcast
11:35 AM 50.5 °F 45.5 °F 83% 30.03 in 10.0 mi West 12.7 mph 23.0 mph N/A   Overcast
11:55 AM 51.4 °F 46.4 °F 83% 30.02 in 10.0 mi West 11.5 mph 23.0 mph N/A   Overcast
12:15 PM 49.6 °F 46.9 °F 90% 30.02 in 5.0 mi West 10.4 mph 18.4 mph N/A   Overcast
12:35 PM 49.1 °F 46.6 °F 91% 30.01 in 7.0 mi West 16.1 mph 27.6 mph N/A   Light Drizzle
12:55 PM 50.0 °F 46.8 °F 89% 29.99 in 10.0 mi WSW 13.8 mph 20.7 mph N/A   Light Drizzle
1:15 PM 52.3 °F 46.8 °F 81% 29.97 in 10.0 mi WSW 15.0 mph 21.9 mph N/A   Overcast
1:35 PM 54.7 °F 46.8 °F 75% 29.95 in 10.0 mi WSW 11.5 mph 19.6 mph N/A   Scattered Clouds
1:55 PM 56.1 °F 47.3 °F 72% 29.97 in 10.0 mi West 11.5 mph 19.6 mph N/A   Scattered Clouds
2:15 PM 52.3 °F 46.4 °F 80% 29.97 in 10.0 mi West 16.1 mph 24.2 mph N/A   Overcast
2:35 PM 49.3 °F 46.6 °F 90% 30.00 in 10.0 mi West 16.1 mph 26.5 mph N/A   Overcast
2:55 PM 48.4 °F 47.1 °F 95% 29.99 in 4.0 mi West 10.4 mph - N/A Rain Rain
3:15 PM 48.4 °F 47.1 °F 95% 29.99 in 7.0 mi West 9.2 mph - N/A   Light Drizzle
3:35 PM 47.7 °F 46.6 °F 96% 30.00 in 5.0 mi West 6.9 mph 17.3 mph N/A   Overcast
3:55 PM 47.7 °F 46.4 °F 95% 30.01 in 5.0 mi West 6.9 mph - N/A   Overcast
4:35 PM 47.7 °F 45.7 °F 93% 30.00 in 7.0 mi West 3.5 mph - N/A   Overcast
4:55 PM 47.5 °F 45.7 °F 93% 30.00 in 10.0 mi West 8.1 mph - N/A   Overcast
5:35 PM 47.7 °F 45.5 °F 92% 30.02 in 10.0 mi West 8.1 mph - N/A   Overcast
6:15 PM 47.7 °F 45.5 °F 92% 30.02 in 10.0 mi WNW 8.1 mph - N/A   Overcast
6:35 PM 47.8 °F 45.3 °F 91% 30.03 in 10.0 mi NNW 4.6 mph - N/A   Overcast
6:55 PM 47.3 °F 45.5 °F 93% 30.03 in 10.0 mi NNW 4.6 mph - N/A   Overcast
7:35 PM 47.7 °F 45.5 °F 92% 30.04 in 10.0 mi West 5.8 mph - N/A   Overcast
7:55 PM 47.7 °F 45.3 °F 92% 30.04 in 10.0 mi WNW 5.8 mph - N/A   Overcast
8:15 PM 47.8 °F 45.0 °F 90% 30.04 in 10.0 mi WNW 5.8 mph - N/A   Overcast
8:35 PM 47.5 °F 44.8 °F 90% 30.03 in 10.0 mi NW 4.6 mph - N/A   Overcast
8:55 PM 47.3 °F 45.0 °F 92% 30.04 in 10.0 mi West 4.6 mph - N/A   Overcast
9:15 PM 47.5 °F 45.0 °F 91% 30.04 in 10.0 mi WNW 3.5 mph - N/A   Overcast
9:35 PM 47.3 °F 44.8 °F 91% 30.03 in 10.0 mi NW 4.6 mph - N/A   Overcast
9:55 PM 47.3 °F 45.0 °F 92% 30.03 in 10.0 mi NW 3.5 mph - N/A   Overcast
10:15 PM 47.3 °F 44.6 °F 90% 30.03 in 10.0 mi West 6.9 mph - N/A   Mostly Cloudy
10:35 PM 46.4 °F 44.8 °F 94% 30.03 in 10.0 mi Calm Calm - N/A   Scattered Clouds
10:55 PM 46.8 °F 44.8 °F 93% 30.03 in 10.0 mi Calm Calm - N/A   Scattered Clouds
11:15 PM 46.8 °F 44.8 °F 93% 30.03 in 10.0 mi West 3.5 mph - N/A   Clear
11:35 PM 46.6 °F 44.8 °F 93% 30.02 in 10.0 mi West 3.5 mph - N/A   Clear
11:55 PM 45.1 °F 44.6 °F 98% 30.02 in 10.0 mi Calm Calm - N/A   Clear